When you browse on this site, cookies collect data to enhance your experience and personalize the content and advertising you see.
Visit our Privacy Policy to learn more. By continuing to use the site, you agree to this use of cookies and data.
  • In Romania
  • List of Countries
  • For 7 days
  • Water Temperature
  • Weather Map
  • Weather Widgets
  • user-avatar
    Login

    Hourly Weather Gitega

    Today, 22 February, Saturday

    Time Temperature Precipitation Wind Pressure Humidity
    00:00 +16°C° 0 mm 0 mps 622 mmHg 90%
    01:00 +16°C° 0 mm 0 mps 622 mmHg 90%
    02:00 +18°C° 0 mm 1 mps 621 mmHg 89%
    03:00 +16°C° 0 mm 0 mps 621 mmHg 89%
    04:00 +15°C° 0 mm 0 mps 621 mmHg 89%
    05:00 +15°C° 0 mm 0 mps 621 mmHg 89%
    06:00 +17°C° 0 mm 0 mps 622 mmHg 87%
    07:00 +18°C° 0 mm 0 mps 623 mmHg 84%
    08:00 +20°C° 0 mm 0 mps 625 mmHg 81%
    09:00 +21°C° 0.1 mm 0 mps 625 mmHg 74%
    10:00 +25°C° 0.1 mm 1 mps 625 mmHg 67%
    11:00 +27°C° 0.1 mm 1 mps 625 mmHg 61%
    12:00 +27°C° 0.6 mm 2 mps 624 mmHg 64%
    13:00 +26°C° 0.6 mm 2 mps 623 mmHg 66%
    14:00 +26°C° 0 mm 3 mps 623 mmHg 64%
    15:00 +25°C° 0.8 mm 2 mps 623 mmHg 70%
    16:00 +24°C° 0.8 mm 2 mps 622 mmHg 76%
    17:00 +24°C° 0.8 mm 2 mps 622 mmHg 82%
    18:00 +22°C° 0.3 mm 1 mps 622 mmHg 84%
    19:00 +21°C° 0.3 mm 1 mps 622 mmHg 87%
    20:00 +17°C° 0.3 mm 0 mps 622 mmHg 90%
    21:00 +17°C° 0 mm 0 mps 622 mmHg 90%
    22:00 +17°C° 0 mm 0 mps 622 mmHg 90%
    23:00 +17°C° 0 mm 0 mps 622 mmHg 90%

    Tomorrow, 23 February, Sunday

    Time Temperature Precipitation Wind Pressure Humidity
    00:00 +18°C° 0 mm 1 mps 622 mmHg 90%
    01:00 +18°C° 0 mm 1 mps 621 mmHg 90%
    02:00 +18°C° 0 mm 1 mps 621 mmHg 90%
    03:00 +16°C° 0 mm 0 mps 621 mmHg 90%
    04:00 +16°C° 0 mm 0 mps 621 mmHg 90%
    05:00 +15°C° 0 mm 0 mps 620 mmHg 90%
    06:00 +17°C° 0 mm 0 mps 622 mmHg 88%
    07:00 +18°C° 0 mm 0 mps 623 mmHg 86%
    08:00 +19°C° 0 mm 0 mps 624 mmHg 84%
    09:00 +22°C° 0.2 mm 1 mps 624 mmHg 79%
    10:00 +24°C° 0.2 mm 1 mps 624 mmHg 74%
    11:00 +25°C° 0.2 mm 2 mps 624 mmHg 69%
    12:00 +26°C° 0.3 mm 2 mps 624 mmHg 68%
    13:00 +26°C° 0.3 mm 2 mps 623 mmHg 67%
    14:00 +26°C° 0.3 mm 2 mps 623 mmHg 66%
    15:00 +26°C° 1 mm 2 mps 622 mmHg 71%
    16:00 +25°C° 1 mm 2 mps 622 mmHg 76%
    17:00 +24°C° 1 mm 2 mps 622 mmHg 80%
    18:00 +23°C° 0.5 mm 1 mps 622 mmHg 83%
    19:00 +21°C° 0.5 mm 1 mps 622 mmHg 85%
    20:00 +18°C° 0.5 mm 0 mps 622 mmHg 88%
    21:00 +18°C° 0 mm 0 mps 622 mmHg 88%
    22:00 +18°C° 0 mm 0 mps 622 mmHg 88%
    23:00 +18°C° 0 mm 0 mps 623 mmHg 88%

    Day after tomorrow, 24 February, Monday

    Time Temperature Precipitation Wind Pressure Humidity
    00:00 +19°C° 0.1 mm 1 mps 622 mmHg 88%
    01:00 +19°C° 0.1 mm 1 mps 622 mmHg 89%
    02:00 +19°C° 0.1 mm 1 mps 621 mmHg 90%
    03:00 +19°C° 0 mm 1 mps 621 mmHg 90%
    04:00 +18°C° 0 mm 1 mps 621 mmHg 90%
    05:00 +18°C° 0 mm 1 mps 621 mmHg 90%
    06:00 +17°C° 0 mm 0 mps 622 mmHg 88%
    07:00 +18°C° 0 mm 0 mps 623 mmHg 86%
    08:00 +20°C° 0 mm 0 mps 624 mmHg 84%
    09:00 +23°C° 0.8 mm 1 mps 624 mmHg 80%
    10:00 +24°C° 0.8 mm 1 mps 624 mmHg 76%
    11:00 +25°C° 0.8 mm 2 mps 624 mmHg 72%
    12:00 +25°C° 1.7 mm 2 mps 624 mmHg 74%
    13:00 +25°C° 1.7 mm 1 mps 623 mmHg 76%
    14:00 +25°C° 1.7 mm 1 mps 623 mmHg 78%
    15:00 +24°C° 1.7 mm 1 mps 622 mmHg 82%
    16:00 +22°C° 1.7 mm 1 mps 622 mmHg 86%
    17:00 +19°C° 1.7 mm 0 mps 621 mmHg 89%
    18:00 +19°C° 0.3 mm 0 mps 622 mmHg 90%
    19:00 +18°C° 0.3 mm 0 mps 622 mmHg 90%
    20:00 +18°C° 0.3 mm 0 mps 623 mmHg 90%
    21:00 +18°C° 0.1 mm 0 mps 623 mmHg 90%
    22:00 +20°C° 0.1 mm 1 mps 623 mmHg 91%
    23:00 +19°C° 0.1 mm 1 mps 623 mmHg 91%

    25 February, Tuesday

    Time Temperature Precipitation Wind Pressure Humidity
    00:00 +19°C° 0.1 mm 1 mps 623 mmHg 92%
    01:00 +19°C° 0.1 mm 1 mps 622 mmHg 92%
    02:00 +19°C° 0.1 mm 1 mps 622 mmHg 92%
    03:00 +19°C° 0.1 mm 1 mps 622 mmHg 93%
    04:00 +19°C° 0.1 mm 1 mps 622 mmHg 93%
    05:00 +19°C° 0.1 mm 1 mps 622 mmHg 93%
    06:00 +19°C° 0.4 mm 1 mps 623 mmHg 92%
    07:00 +20°C° 0.4 mm 1 mps 623 mmHg 91%
    08:00 +21°C° 0.4 mm 1 mps 624 mmHg 90%
    09:00 +22°C° 0.9 mm 1 mps 624 mmHg 84%
    10:00 +23°C° 0.9 mm 1 mps 625 mmHg 77%
    11:00 +24°C° 0.9 mm 1 mps 625 mmHg 71%
    12:00 +24°C° 0.7 mm 1 mps 624 mmHg 72%
    13:00 +24°C° 0.7 mm 1 mps 624 mmHg 73%
    14:00 +24°C° 0.7 mm 1 mps 623 mmHg 73%
    15:00 +23°C° 1.2 mm 1 mps 623 mmHg 78%
    16:00 +21°C° 1.2 mm 0 mps 623 mmHg 82%
    17:00 +20°C° 1.2 mm 0 mps 622 mmHg 86%
    18:00 +19°C° 0.4 mm 0 mps 622 mmHg 88%
    19:00 +20°C° 0.4 mm 1 mps 622 mmHg 89%
    20:00 +19°C° 0.4 mm 1 mps 622 mmHg 91%
    21:00 +19°C° 0 mm 1 mps 622 mmHg 92%
    22:00 +17°C° 0 mm 0 mps 623 mmHg 92%
    23:00 +17°C° 0 mm 0 mps 623 mmHg 92%

    26 February, Wednesday

    Time Temperature Precipitation Wind Pressure Humidity
    00:00 +16°C° 0 mm 0 mps 622 mmHg 93%
    01:00 +16°C° 0 mm 0 mps 622 mmHg 93%
    02:00 +16°C° 0 mm 0 mps 622 mmHg 93%
    03:00 +16°C° 0 mm 0 mps 622 mmHg 93%
    04:00 +16°C° 0 mm 0 mps 622 mmHg 92%
    05:00 +16°C° 0 mm 0 mps 622 mmHg 92%
    06:00 +19°C° 0 mm 1 mps 623 mmHg 91%
    07:00 +19°C° 0 mm 1 mps 624 mmHg 89%
    08:00 +20°C° 0 mm 1 mps 624 mmHg 87%
    09:00 +22°C° 0.9 mm 1 mps 625 mmHg 82%
    10:00 +23°C° 0.9 mm 1 mps 625 mmHg 77%
    11:00 +24°C° 0.9 mm 1 mps 625 mmHg 72%
    12:00 +24°C° 0.7 mm 2 mps 624 mmHg 71%
    13:00 +25°C° 0.7 mm 2 mps 624 mmHg 70%
    14:00 +25°C° 0.7 mm 2 mps 623 mmHg 69%
    15:00 +24°C° 1 mm 1 mps 623 mmHg 75%
    16:00 +23°C° 1 mm 1 mps 622 mmHg 80%
    17:00 +22°C° 1 mm 1 mps 622 mmHg 85%
    18:00 +19°C° 0.3 mm 0 mps 622 mmHg 87%
    19:00 +18°C° 0.3 mm 0 mps 622 mmHg 89%
    20:00 +17°C° 0.3 mm 0 mps 622 mmHg 91%
    21:00 +17°C° 0 mm 0 mps 623 mmHg 91%
    22:00 +17°C° 0 mm 0 mps 623 mmHg 91%
    23:00 +17°C° 0 mm 0 mps 623 mmHg 90%

    27 February, Thursday

    Time Temperature Precipitation Wind Pressure Humidity
    00:00 +16°C° 0 mm 0 mps 623 mmHg 90%
    01:00 +16°C° 0 mm 0 mps 622 mmHg 90%
    02:00 +16°C° 0 mm 0 mps 622 mmHg 90%
    03:00 +16°C° 0 mm 0 mps 622 mmHg 90%
    04:00 +15°C° 0 mm 0 mps 622 mmHg 91%
    05:00 +15°C° 0 mm 0 mps 622 mmHg 91%
    06:00 +16°C° 0 mm 0 mps 623 mmHg 89%
    07:00 +17°C° 0 mm 0 mps 624 mmHg 87%
    08:00 +19°C° 0 mm 0 mps 625 mmHg 85%
    09:00 +22°C° 0.4 mm 1 mps 625 mmHg 80%
    10:00 +23°C° 0.4 mm 1 mps 625 mmHg 76%
    11:00 +24°C° 0.4 mm 2 mps 625 mmHg 72%
    12:00 +25°C° 0.7 mm 2 mps 625 mmHg 71%
    13:00 +25°C° 0.7 mm 2 mps 624 mmHg 70%
    14:00 +25°C° 0.7 mm 2 mps 624 mmHg 70%
    15:00 +25°C° 1.9 mm 1 mps 623 mmHg 74%
    16:00 +24°C° 1.9 mm 1 mps 623 mmHg 79%
    17:00 +23°C° 1.9 mm 1 mps 623 mmHg 84%
    18:00 +22°C° 0.6 mm 1 mps 623 mmHg 86%
    19:00 +19°C° 0.6 mm 0 mps 623 mmHg 87%
    20:00 +17°C° 0.6 mm 0 mps 623 mmHg 89%
    21:00 +17°C° 0 mm 0 mps 623 mmHg 90%
    22:00 +17°C° 0 mm 0 mps 623 mmHg 90%
    23:00 +17°C° 0 mm 0 mps 623 mmHg 91%
    Show more